San Antonio Stinson, TX

3:33 AM CDT on April 25, 2017 (GMT -0500)
Stinson Municipal

Weather History for KSSF - November, 2010

Change the Weather History Date:

Tuesday, November 30, 2010

  Actual Average Record
Temperature  
Mean Temperature 50 °F -  
Max Temperature 64 °F 65 °F 81 °F (1998)
Min Temperature 37 °F 46 °F 33 °F (2001)
Degree Days  
Heating Degree Days 14    
Moisture  
Dew Point 19 °F    
Average Humidity 27    
Maximum Humidity 65    
Minimum Humidity 14    
Precipitation  
Precipitation 0.00 in - - ()
Sea Level Pressure  
Sea Level Pressure 30.27 in    
Wind  
Wind Speed 13 mph (NNW)    
Max Wind Speed 20 mph    
Max Gust Speed 31 mph    
Visibility 10 miles    
Events      
Averages and records for this station are not official NWS values.
T = Trace of Precipitation, MM = Missing Value Source: NWS Daily Summary

Daily Weather History Graph

Daily Weather History Graph

Search for Another Location

Airport or City:

Trip Planner

Search our weather history database for the weather conditions in past years. The results will help you decide how hot, cold, wet, or windy it might be!

Date:

Astronomy

Nov. 30, 2010 Rise Set
Actual Time 7:09 AM CST 5:35 PM CST
Civil Twilight 6:44 AM CST 6:00 PM CST
Nautical Twilight 6:14 AM CST 6:30 PM CST
Astronomical Twilight 5:46 AM CST 6:58 PM CST
Moon 1:48 AM CST (11/30) 1:48 PM CST (11/30)
Length of Visible Light 11h 16m
Length of Day
10h 25m
Waning Crescent, 29% of the Moon is Illuminated
Nov 30
Waning Crescent
Dec 5
New
Dec 13
First Quarter
Dec 21
Full
Dec 27
Last Quarter

Hourly Weather History & Observations

Time (CST) Temp. Windchill Dew Point Humidity Pressure Visibility Wind Dir Wind Speed Gust Speed Precip Events Conditions
12:53 AM 64.9 °F - 18.0 °F 16% 29.99 in 10.0 mi NNW 18.4 mph 24.2 mph N/A   Overcast
1:53 AM 64.9 °F - 14.0 °F 14% 30.01 in 10.0 mi NNW 10.4 mph 23.0 mph N/A   Overcast
3:53 AM 63.0 °F - 17.1 °F 17% 30.06 in 10.0 mi NNW 11.5 mph 17.3 mph N/A   Overcast
4:53 AM 61.0 °F - 19.0 °F 20% 30.09 in 10.0 mi NNW 13.8 mph 27.6 mph N/A   Overcast
5:53 AM 55.9 °F - 25.0 °F 30% 30.17 in 10.0 mi North 19.6 mph 31.1 mph N/A   Overcast
6:53 AM 52.0 °F - 21.0 °F 30% 30.23 in 10.0 mi North 15.0 mph 29.9 mph N/A   Partly Cloudy
7:53 AM 50.0 °F - 19.0 °F 29% 30.29 in 10.0 mi North 17.3 mph 28.8 mph N/A   Clear
8:53 AM 51.1 °F - 19.9 °F 29% 30.32 in 10.0 mi NNW 13.8 mph 19.6 mph N/A   Clear
9:53 AM 53.1 °F - 19.0 °F 26% 30.36 in 10.0 mi NNW 16.1 mph 21.9 mph N/A   Clear
10:53 AM 54.0 °F - 18.0 °F 24% 30.37 in 10.0 mi NNW 13.8 mph 20.7 mph N/A   Clear
11:53 AM 55.9 °F - 17.1 °F 22% 30.35 in 10.0 mi North 12.7 mph 19.6 mph N/A   Clear
12:53 PM 59.0 °F - 16.0 °F 19% 30.33 in 10.0 mi North 11.5 mph 20.7 mph N/A   Clear
1:53 PM 61.0 °F - 16.0 °F 17% 30.30 in 10.0 mi NNW 9.2 mph 19.6 mph N/A   Clear
2:53 PM 63.0 °F - 15.1 °F 16% 30.29 in 10.0 mi North 11.5 mph - N/A   Clear
3:53 PM 63.0 °F - 14.0 °F 15% 30.30 in 10.0 mi NNW 10.4 mph 18.4 mph N/A   Clear
4:53 PM 61.0 °F - 12.9 °F 15% 30.31 in 10.0 mi NNW 10.4 mph - N/A   Clear
5:53 PM 57.0 °F - 14.0 °F 18% 30.33 in 10.0 mi NNW 4.6 mph - N/A   Clear
6:53 PM 54.0 °F - 16.0 °F 22% 30.35 in 10.0 mi North 3.5 mph - N/A   Clear
8:53 PM 44.1 °F 42.5 °F 23.0 °F 43% 30.38 in 10.0 mi North 3.5 mph - N/A   Clear
9:53 PM 39.9 °F - 25.0 °F 55% 30.40 in 10.0 mi Calm Calm - N/A   Clear
10:53 PM 37.9 °F - 25.0 °F 60% 30.40 in 10.0 mi Calm Calm - N/A   Clear
11:53 PM 37.0 °F - 26.1 °F 65% 30.40 in 10.0 mi Calm Calm - N/A   Clear